| time (UTC) | temp F | wind direction | speed MPH | gust MPH | rain 1hr in | rain 24hr in | rain mn in | humidity % | barometer mb |
| 20260507011930 | 56 | 350 | 0.0 | 0.0 | 0.00 | 0.27 | 0.00 | 91 | 1011.2 |
| 20260507011431 | 56 | 350 | 0.0 | 0.0 | 0.00 | 0.27 | 0.00 | 92 | 1011.2 |
| 20260507010432 | 56 | 350 | 0.0 | 0.0 | 0.00 | 0.27 | 0.00 | 92 | 1011.3 |
| 20260507005931 | 56 | 350 | 0.0 | 0.0 | 0.00 | 0.27 | 0.00 | 92 | 1011.2 |
| 20260507005434 | 56 | 350 | 0.0 | 0.0 | 0.00 | 0.27 | 0.00 | 92 | 1011.4 |
| 20260507004930 | 56 | 350 | 0.0 | 2.0 | 0.00 | 0.27 | 0.00 | 92 | 1011.3 |
| 20260507004431 | 56 | 350 | 0.0 | 2.0 | 0.00 | 0.27 | 0.00 | 92 | 1011.4 |
| 20260507003932 | 56 | 350 | 0.0 | 2.0 | 0.00 | 0.27 | 0.00 | 91 | 1011.3 |
| 20260507003430 | 56 | 355 | 0.0 | 0.0 | 0.00 | 0.27 | 0.00 | 91 | 1011.3 |
| 20260507002931 | 56 | 355 | 0.0 | 0.0 | 0.00 | 0.27 | 0.00 | 91 | 1011.2 |
| 20260507002430 | 56 | 355 | 0.0 | 0.0 | 0.00 | 0.27 | 0.00 | 91 | 1011.3 |
| 20260507001931 | 56 | 355 | 0.0 | 0.0 | 0.00 | 0.27 | 0.00 | 91 | 1011.1 |
| 20260507001432 | 56 | 355 | 0.0 | 0.0 | 0.00 | 0.27 | 0.00 | 91 | 1011.0 |
| 20260507000931 | 56 | 355 | 0.0 | 0.0 | 0.00 | 0.27 | 0.00 | 91 | 1011.1 |
| 20260507000428 | 57 | 355 | 0.0 | 0.0 | 0.00 | 0.27 | 0.00 | 91 | 1011.1 |
| 20260506235417 | 57 | 355 | 0.0 | 2.0 | 0.00 | 0.27 | 0.00 | 91 | 1011.3 |
| 20260506234910 | 57 | 355 | 0.0 | 1.0 | 0.00 | 0.27 | 0.00 | 91 | 1011.3 |
| 20260506234403 | 57 | 355 | 0.0 | 1.0 | 0.00 | 0.27 | 0.00 | 91 | 1011.3 |
| 20260506233902 | 57 | 355 | 0.0 | 1.0 | 0.00 | 0.27 | 0.00 | 91 | 1011.2 |
| 20260506233403 | 57 | 355 | 0.0 | 0.0 | 0.00 | 0.27 | 0.00 | 91 | 1011.3 |
| 20260506232903 | 57 | 355 | 0.0 | 0.0 | 0.00 | 0.27 | 0.00 | 91 | 1011.2 |
| 20260506232403 | 57 | 355 | 0.0 | 0.0 | 0.00 | 0.27 | 0.00 | 91 | 1011.2 |
| 20260506231903 | 57 | 355 | 0.0 | 0.0 | 0.00 | 0.27 | 0.00 | 91 | 1011.2 |
| 20260506231403 | 57 | 355 | 0.0 | 0.0 | 0.00 | 0.27 | 0.00 | 91 | 1011.2 |
| 20260506230903 | 57 | 355 | 0.0 | 0.0 | 0.00 | 0.27 | 0.00 | 91 | 1011.2 |
| 20260506225902 | 57 | 355 | 0.0 | 2.0 | 0.00 | 0.27 | 0.00 | 91 | 1011.1 |
| 20260506225402 | 57 | 355 | 0.0 | 2.0 | 0.00 | 0.27 | 0.00 | 91 | 1011.1 |
| 20260506224904 | 57 | 27 | 0.0 | 0.0 | 0.00 | 0.27 | 0.00 | 91 | 1011.1 |
| 20260506224404 | 57 | 27 | 0.0 | 0.0 | 0.00 | 0.27 | 0.00 | 91 | 1011.1 |
| 20260506223402 | 57 | 27 | 0.0 | 2.0 | 0.00 | 0.27 | 0.00 | 91 | 1011.2 |
| 20260506222903 | 57 | 27 | 0.0 | 0.0 | 0.00 | 0.27 | 0.00 | 91 | 1011.2 |
| 20260506222402 | 58 | 27 | 0.0 | 0.0 | 0.00 | 0.27 | 0.00 | 91 | 1011.2 |
| 20260506221902 | 58 | 27 | 0.0 | 0.0 | 0.00 | 0.27 | 0.00 | 91 | 1011.2 |
| 20260506221404 | 58 | 27 | 0.0 | 0.0 | 0.00 | 0.27 | 0.00 | 90 | 1011.1 |
| 20260506220903 | 58 | 27 | 0.0 | 0.0 | 0.00 | 0.27 | 0.00 | 90 | 1011.1 |
| 20260506215902 | 58 | 27 | 0.0 | 0.0 | 0.00 | 0.27 | 0.27 | 90 | 1011.1 |
| 20260506215402 | 58 | 27 | 0.0 | 0.0 | 0.00 | 0.27 | 0.27 | 90 | 1011.1 |
| 20260506214903 | 58 | 27 | 0.0 | 0.0 | 0.00 | 0.27 | 0.27 | 91 | 1011.1 |
| 20260506214403 | 58 | 27 | 0.0 | 0.0 | 0.00 | 0.27 | 0.27 | 90 | 1011.0 |
| 20260506213903 | 58 | 27 | 0.0 | 0.0 | 0.00 | 0.27 | 0.27 | 90 | 1010.9 |
| 20260506212902 | 59 | 27 | 0.0 | 2.0 | 0.00 | 0.27 | 0.27 | 90 | 1011.0 |
| 20260506212404 | 59 | 27 | 0.0 | 2.0 | 0.00 | 0.27 | 0.27 | 90 | 1011.0 |
| 20260506211902 | 59 | 27 | 0.0 | 0.0 | 0.00 | 0.27 | 0.27 | 90 | 1011.0 |
| 20260506211402 | 59 | 33 | 0.0 | 0.0 | 0.00 | 0.27 | 0.27 | 90 | 1011.0 |
| 20260506205403 | 59 | 32 | 1.0 | 3.0 | 0.00 | 0.27 | 0.27 | 90 | 1010.8 |
| 20260506204902 | 60 | 33 | 1.0 | 3.0 | 0.00 | 0.27 | 0.27 | 90 | 1010.8 |
| 20260506204404 | 60 | 32 | 0.0 | 2.0 | 0.00 | 0.27 | 0.27 | 89 | 1010.8 |
| 20260506203902 | 60 | 33 | 0.0 | 2.0 | 0.00 | 0.27 | 0.27 | 89 | 1010.8 |
| 20260506202904 | 60 | 33 | 1.0 | 2.0 | 0.00 | 0.27 | 0.27 | 89 | 1010.8 |
| 20260506202402 | 60 | 33 | 1.0 | 4.0 | 0.00 | 0.27 | 0.27 | 89 | 1010.8 |
| 20260506201902 | 60 | 33 | 1.0 | 4.0 | 0.00 | 0.27 | 0.27 | 89 | 1010.8 |
| 20260506201403 | 60 | 32 | 1.0 | 3.0 | 0.00 | 0.27 | 0.27 | 89 | 1010.7 |
| 20260506195903 | 61 | 59 | 0.0 | 2.0 | 0.00 | 0.27 | 0.27 | 88 | 1010.5 |
| 20260506194903 | 61 | 59 | 1.0 | 3.0 | 0.00 | 0.27 | 0.27 | 88 | 1010.4 |
| 20260506194404 | 61 | 61 | 1.0 | 3.0 | 0.00 | 0.27 | 0.27 | 88 | 1010.3 |
| 20260506193904 | 61 | 5 | 1.0 | 4.0 | 0.00 | 0.27 | 0.27 | 88 | 1010.3 |
| 20260506193403 | 61 | 61 | 3.0 | 6.0 | 0.00 | 0.27 | 0.27 | 88 | 1010.2 |
| 20260506192900 | 61 | 47 | 3.0 | 6.0 | 0.00 | 0.27 | 0.27 | 88 | 1010.2 |
| 20260506192354 | 61 | 27 | 3.0 | 5.0 | 0.00 | 0.27 | 0.27 | 88 | 1010.1 |
| 20260506191848 | 61 | 51 | 2.0 | 5.0 | 0.00 | 0.27 | 0.27 | 87 | 1010.1 |
| 20260506191344 | 62 | 15 | 1.0 | 4.0 | 0.00 | 0.27 | 0.27 | 87 | 1010.2 |
| 20260506190840 | 62 | 355 | 1.0 | 4.0 | 0.00 | 0.27 | 0.27 | 87 | 1010.1 |
| 20260506190336 | 62 | 355 | 2.0 | 4.0 | 0.00 | 0.27 | 0.27 | 87 | 1010.0 |
| 20260506185835 | 62 | 355 | 2.0 | 4.0 | 0.00 | 0.27 | 0.27 | 87 | 1009.9 |
| 20260506185335 | 62 | 343 | 1.0 | 4.0 | 0.00 | 0.27 | 0.27 | 87 | 1010.0 |
| 20260506184832 | 62 | 96 | 1.0 | 3.0 | 0.00 | 0.27 | 0.27 | 87 | 1009.9 |
| 20260506184331 | 62 | 96 | 2.0 | 4.0 | 0.00 | 0.27 | 0.27 | 87 | 1009.9 |
| 20260506183832 | 62 | 33 | 2.0 | 4.0 | 0.00 | 0.27 | 0.27 | 87 | 1009.8 |
| 20260506183331 | 62 | 42 | 2.0 | 4.0 | 0.00 | 0.27 | 0.27 | 87 | 1009.8 |
| 20260506182833 | 62 | 48 | 2.0 | 4.0 | 0.00 | 0.27 | 0.27 | 87 | 1009.7 |
| 20260506182330 | 62 | 355 | 1.0 | 3.0 | 0.00 | 0.27 | 0.27 | 86 | 1009.7 |
| 20260506181333 | 62 | 355 | 3.0 | 5.0 | 0.00 | 0.27 | 0.27 | 86 | 1009.6 |
| 20260506180832 | 62 | 5 | 3.0 | 6.0 | 0.00 | 0.27 | 0.27 | 86 | 1009.6 |
| 20260506180331 | 62 | 25 | 2.0 | 6.0 | 0.00 | 0.27 | 0.27 | 85 | 1009.3 |
| 20260506175834 | 62 | 90 | 2.0 | 5.0 | 0.00 | 0.27 | 0.27 | 85 | 1009.2 |
| 20260506175331 | 63 | 114 | 2.0 | 4.0 | 0.00 | 0.27 | 0.27 | 85 | 1009.4 |
| 20260506174830 | 63 | 118 | 2.0 | 4.0 | 0.00 | 0.27 | 0.27 | 85 | 1009.4 |
| 20260506174331 | 63 | 139 | 2.0 | 5.0 | 0.00 | 0.27 | 0.27 | 85 | 1009.3 |
| 20260506173831 | 63 | 99 | 2.0 | 6.0 | 0.00 | 0.27 | 0.27 | 85 | 1009.3 |
| 20260506173332 | 63 | 115 | 2.0 | 6.0 | 0.00 | 0.27 | 0.27 | 84 | 1009.2 |
| 20260506172830 | 63 | 95 | 1.0 | 3.0 | 0.00 | 0.27 | 0.27 | 85 | 1009.3 |
| 20260506172331 | 63 | 90 | 1.0 | 3.0 | 0.00 | 0.27 | 0.27 | 85 | 1009.3 |
| 20260506171832 | 63 | 90 | 1.0 | 3.0 | 0.00 | 0.27 | 0.27 | 84 | 1009.3 |
| 20260506171331 | 63 | 89 | 1.0 | 3.0 | 0.00 | 0.27 | 0.27 | 84 | 1009.2 |
| 20260506170831 | 63 | 74 | 1.0 | 3.0 | 0.00 | 0.27 | 0.27 | 84 | 1009.2 |
| 20260506170331 | 63 | 74 | 2.0 | 4.0 | 0.00 | 0.27 | 0.27 | 84 | 1009.2 |
| 20260506165331 | 63 | 24 | 2.0 | 3.0 | 0.00 | 0.27 | 0.27 | 83 | 1009.1 |
| 20260506164330 | 64 | 32 | 2.0 | 4.0 | 0.00 | 0.27 | 0.27 | 82 | 1009.2 |
| 20260506163827 | 64 | 30 | 1.0 | 3.0 | 0.00 | 0.27 | 0.27 | 81 | 1009.2 |
| 20260506163329 | 64 | 126 | 1.0 | 4.0 | 0.00 | 0.27 | 0.27 | 81 | 1009.1 |
| 20260506162824 | 64 | 126 | 2.0 | 5.0 | 0.00 | 0.27 | 0.27 | 80 | 1009.2 |
| 20260506162323 | 65 | 126 | 2.0 | 5.0 | 0.00 | 0.27 | 0.27 | 80 | 1009.2 |
| 20260506161823 | 65 | 107 | 2.0 | 5.0 | 0.00 | 0.27 | 0.27 | 80 | 1009.3 |
| 20260506161324 | 65 | 115 | 3.0 | 6.0 | 0.00 | 0.27 | 0.27 | 79 | 1009.4 |
| 20260506160823 | 65 | 140 | 2.0 | 6.0 | 0.00 | 0.27 | 0.27 | 79 | 1009.5 |
| 20260506160323 | 65 | 140 | 2.0 | 5.0 | 0.00 | 0.27 | 0.27 | 80 | 1009.4 |
| 20260506155323 | 65 | 167 | 2.0 | 4.0 | 0.00 | 0.27 | 0.27 | 82 | 1009.4 |
| 20260506154823 | 65 | 146 | 2.0 | 4.0 | 0.00 | 0.27 | 0.27 | 84 | 1009.5 |
| 20260506154319 | 64 | 84 | 2.0 | 5.0 | 0.00 | 0.27 | 0.27 | 85 | 1009.4 |
| 20260506153820 | 64 | 121 | 3.0 | 5.0 | 0.00 | 0.27 | 0.27 | 85 | 1009.3 |
| 20260506153320 | 64 | 159 | 3.0 | 6.0 | 0.00 | 0.27 | 0.27 | 86 | 1009.2 |
| 20260506152319 | 63 | 138 | 3.0 | 6.0 | 0.00 | 0.27 | 0.27 | 86 | 1009.2 |
| 20260506151819 | 63 | 157 | 3.0 | 6.0 | 0.00 | 0.27 | 0.27 | 86 | 1009.3 |
| 20260506150819 | 62 | 105 | 3.0 | 7.0 | 0.00 | 0.27 | 0.27 | 86 | 1009.4 |
| 20260506150328 | 62 | 165 | 3.0 | 7.0 | 0.00 | 0.27 | 0.27 | 87 | 1009.4 |
| 20260506145817 | 62 | 138 | 3.0 | 7.0 | 0.00 | 0.27 | 0.27 | 88 | 1009.4 |
| 20260506145318 | 61 | 65 | 2.0 | 7.0 | 0.00 | 0.27 | 0.27 | 88 | 1009.4 |
| 20260506144815 | 61 | 137 | 3.0 | 6.0 | 0.00 | 0.27 | 0.27 | 89 | 1009.4 |
| 20260506144315 | 60 | 92 | 3.0 | 7.0 | 0.00 | 0.27 | 0.27 | 89 | 1009.5 |
| 20260506143815 | 60 | 159 | 3.0 | 7.0 | 0.00 | 0.27 | 0.27 | 89 | 1009.5 |
| 20260506143313 | 60 | 109 | 3.0 | 9.0 | 0.00 | 0.27 | 0.27 | 90 | 1009.6 |
| 20260506141811 | 60 | 95 | 5.0 | 10.0 | 0.00 | 0.27 | 0.27 | 90 | 1009.4 |
| 20260506141311 | 61 | 125 | 4.0 | 10.0 | 0.00 | 0.27 | 0.27 | 90 | 1009.4 |
| 20260506140811 | 61 | 64 | 4.0 | 9.0 | 0.01 | 0.27 | 0.27 | 91 | 1009.5 |
| 20260506135808 | 61 | 94 | 3.0 | 8.0 | 0.07 | 0.27 | 0.27 | 91 | 1009.7 |
| 20260506134807 | 61 | 75 | 3.0 | 8.0 | 0.16 | 0.27 | 0.27 | 90 | 1009.5 |
| 20260506134307 | 61 | 87 | 3.0 | 8.0 | 0.17 | 0.27 | 0.27 | 90 | 1009.5 |
| 20260506133807 | 61 | 80 | 2.0 | 8.0 | 0.17 | 0.27 | 0.27 | 90 | 1009.7 |
| 20260506132807 | 61 | 58 | 3.0 | 7.0 | 0.18 | 0.27 | 0.27 | 90 | 1009.8 |
| 20260506132307 | 61 | 97 | 4.0 | 9.0 | 0.18 | 0.27 | 0.27 | 90 | 1009.9 |
| 20260506131805 | 61 | 93 | 4.0 | 9.0 | 0.18 | 0.27 | 0.27 | 89 | 1009.9 |
| 20260506131306 | 61 | 108 | 3.0 | 8.0 | 0.18 | 0.27 | 0.27 | 89 | 1009.9 |
| 20260506130805 | 61 | 108 | 3.0 | 7.0 | 0.17 | 0.26 | 0.26 | 89 | 1010.1 |
| 20260506130305 | 61 | 105 | 2.0 | 7.0 | 0.15 | 0.24 | 0.23 | 88 | 1010.1 |
| 20260506125803 | 61 | 140 | 3.0 | 8.0 | 0.11 | 0.20 | 0.19 | 88 | 1010.2 |
| 20260506125306 | 61 | 86 | 4.0 | 8.0 | 0.06 | 0.14 | 0.13 | 87 | 1010.2 |
| 20260506124302 | 62 | 114 | 3.0 | 7.0 | 0.01 | 0.09 | 0.09 | 87 | 1010.3 |
| 20260506123803 | 62 | 80 | 3.0 | 7.0 | 0.01 | 0.09 | 0.09 | 87 | 1010.2 |
| 20260506122805 | 62 | 150 | 3.0 | 9.0 | 0.00 | 0.09 | 0.09 | 87 | 1010.0 |
| 20260506122305 | 62 | 98 | 3.0 | 9.0 | 0.00 | 0.09 | 0.09 | 86 | 1010.0 |
| 20260506121807 | 62 | 81 | 3.0 | 8.0 | 0.00 | 0.09 | 0.09 | 86 | 1010.0 |
| 20260506121302 | 62 | 71 | 3.0 | 8.0 | 0.00 | 0.09 | 0.09 | 86 | 1010.1 |
| 20260506120803 | 62 | 86 | 3.0 | 10.0 | 0.00 | 0.09 | 0.09 | 85 | 1010.2 |
| 20260506120302 | 62 | 128 | 4.0 | 10.0 | 0.00 | 0.09 | 0.09 | 85 | 1010.2 |
| 20260506115802 | 62 | 113 | 4.0 | 9.0 | 0.00 | 0.09 | 0.09 | 84 | 1010.3 |
| 20260506115306 | 63 | 101 | 4.0 | 9.0 | 0.00 | 0.09 | 0.09 | 84 | 1010.4 |
| 20260506114805 | 63 | 132 | 3.0 | 8.0 | 0.00 | 0.09 | 0.09 | 83 | 1010.4 |
| 20260506113802 | 63 | 78 | 4.0 | 8.0 | 0.00 | 0.09 | 0.09 | 83 | 1010.5 |
| 20260506113302 | 63 | 98 | 4.0 | 8.0 | 0.00 | 0.09 | 0.09 | 83 | 1010.5 |
| 20260506112803 | 63 | 128 | 4.0 | 8.0 | 0.00 | 0.09 | 0.09 | 83 | 1010.6 |
| 20260506112305 | 63 | 134 | 3.0 | 8.0 | 0.00 | 0.09 | 0.09 | 84 | 1010.6 |
| 20260506111802 | 63 | 126 | 3.0 | 7.0 | 0.00 | 0.09 | 0.09 | 84 | 1010.7 |
| 20260506110803 | 63 | 117 | 2.0 | 8.0 | 0.00 | 0.09 | 0.09 | 87 | 1010.8 |
| 20260506110304 | 62 | 147 | 3.0 | 8.0 | 0.00 | 0.09 | 0.09 | 87 | 1010.8 |
| 20260506105802 | 61 | 146 | 4.0 | 8.0 | 0.00 | 0.09 | 0.09 | 87 | 1010.9 |
| 20260506105305 | 61 | 164 | 3.0 | 7.0 | 0.00 | 0.09 | 0.09 | 87 | 1011.0 |
| 20260506104802 | 61 | 130 | 3.0 | 7.0 | 0.00 | 0.09 | 0.09 | 87 | 1011.1 |
| 20260506104300 | 61 | 121 | 3.0 | 7.0 | 0.00 | 0.09 | 0.09 | 87 | 1011.1 |
| 20260506103248 | 61 | 101 | 4.0 | 10.0 | 0.00 | 0.09 | 0.09 | 87 | 1010.9 |
| 20260506102747 | 60 | 90 | 3.0 | 9.0 | 0.00 | 0.09 | 0.09 | 87 | 1010.9 |
| 20260506102246 | 60 | 110 | 3.0 | 7.0 | 0.01 | 0.09 | 0.09 | 87 | 1011.0 |
| 20260506101747 | 60 | 118 | 3.0 | 6.0 | 0.01 | 0.09 | 0.09 | 87 | 1011.2 |
| 20260506101248 | 60 | 126 | 1.0 | 4.0 | 0.02 | 0.09 | 0.09 | 88 | 1011.3 |
| 20260506100746 | 60 | 128 | 1.0 | 4.0 | 0.02 | 0.09 | 0.09 | 88 | 1011.3 |
| 20260506100246 | 60 | 134 | 2.0 | 4.0 | 0.02 | 0.09 | 0.09 | 88 | 1011.3 |
| 20260506095746 | 60 | 108 | 2.0 | 6.0 | 0.02 | 0.09 | 0.09 | 88 | 1011.3 |
| 20260506095247 | 60 | 162 | 3.0 | 8.0 | 0.02 | 0.09 | 0.09 | 88 | 1011.3 |
| 20260506094746 | 60 | 118 | 2.0 | 8.0 | 0.02 | 0.09 | 0.09 | 88 | 1011.2 |
| 20260506094246 | 61 | 123 | 1.0 | 8.0 | 0.02 | 0.09 | 0.09 | 87 | 1011.3 |
| 20260506093746 | 61 | 146 | 2.0 | 7.0 | 0.02 | 0.09 | 0.09 | 87 | 1011.3 |
| 20260506092249 | 61 | 131 | 0.0 | 4.0 | 0.01 | 0.09 | 0.08 | 87 | 1011.3 |
| 20260506091744 | 61 | 148 | 1.0 | 5.0 | 0.01 | 0.09 | 0.08 | 87 | 1011.3 |
| 20260506091242 | 61 | 148 | 1.0 | 5.0 | 0.00 | 0.08 | 0.07 | 87 | 1011.3 |
| 20260506090744 | 61 | 135 | 1.0 | 4.0 | 0.00 | 0.08 | 0.07 | 87 | 1011.3 |
| 20260506090238 | 61 | 161 | 1.0 | 4.0 | 0.00 | 0.09 | 0.07 | 88 | 1011.3 |
| 20260506085740 | 61 | 163 | 1.0 | 4.0 | 0.00 | 0.09 | 0.07 | 88 | 1011.2 |
| 20260506085239 | 61 | 163 | 1.0 | 4.0 | 0.01 | 0.09 | 0.07 | 88 | 1011.2 |
| 20260506084737 | 61 | 137 | 1.0 | 3.0 | 0.01 | 0.10 | 0.07 | 89 | 1011.0 |
| 20260506084237 | 61 | 137 | 0.0 | 3.0 | 0.01 | 0.10 | 0.07 | 89 | 1011.1 |
| 20260506083235 | 60 | 153 | 0.0 | 1.0 | 0.01 | 0.10 | 0.07 | 90 | 1010.9 |
| 20260506082735 | 61 | 152 | 0.0 | 1.0 | 0.01 | 0.10 | 0.07 | 91 | 1010.9 |
| 20260506082235 | 60 | 152 | 0.0 | 0.0 | 0.01 | 0.10 | 0.07 | 91 | 1010.9 |
| 20260506081735 | 60 | 152 | 0.0 | 0.0 | 0.01 | 0.10 | 0.07 | 91 | 1010.9 |
| 20260506080734 | 59 | 152 | 0.0 | 2.0 | 0.01 | 0.10 | 0.07 | 91 | 1011.0 |
| 20260506080231 | 59 | 152 | 0.0 | 2.0 | 0.01 | 0.10 | 0.07 | 91 | 1010.9 |
| 20260506072731 | 59 | 146 | 0.0 | 2.0 | 0.00 | 0.09 | 0.06 | 92 | 1011.2 |
| 20260506071732 | 59 | 123 | 0.0 | 1.0 | 0.00 | 0.09 | 0.06 | 92 | 1011.1 |
| 20260506071232 | 58 | 70 | 0.0 | 0.0 | 0.00 | 0.09 | 0.06 | 92 | 1011.1 |
| 20260506070732 | 58 | 70 | 0.0 | 0.0 | 0.00 | 0.09 | 0.06 | 92 | 1011.1 |
| 20260506070230 | 58 | 70 | 0.0 | 0.0 | 0.00 | 0.09 | 0.06 | 92 | 1011.2 |
| 20260506062232 | 57 | 74 | 0.0 | 0.0 | 0.00 | 0.09 | 0.06 | 92 | 1010.9 |
| 20260506061730 | 57 | 171 | 0.0 | 0.0 | 0.01 | 0.09 | 0.06 | 92 | 1011.0 |
| 20260506060730 | 57 | 172 | 0.0 | 0.0 | 0.01 | 0.09 | 0.06 | 92 | 1010.9 |
| 20260506050733 | 56 | 248 | 0.0 | 1.0 | 0.00 | 0.09 | 0.06 | 91 | 1011.4 |
| 20260506050231 | 56 | 248 | 0.0 | 2.0 | 0.00 | 0.09 | 0.06 | 91 | 1011.5 |
| 20260506044717 | 56 | 323 | 0.0 | 0.0 | 0.00 | 0.09 | 0.06 | 92 | 1011.5 |
| 20260506044211 | 56 | 323 | 0.0 | 1.0 | 0.00 | 0.09 | 0.06 | 92 | 1011.3 |
| 20260506043712 | 56 | 323 | 0.0 | 2.0 | 0.02 | 0.09 | 0.06 | 92 | 1011.3 |
| 20260506043211 | 56 | 323 | 1.0 | 3.0 | 0.02 | 0.09 | 0.06 | 92 | 1011.2 |
| 20260506042711 | 55 | 323 | 1.0 | 3.0 | 0.04 | 0.09 | 0.06 | 91 | 1011.0 |
| 20260506042212 | 55 | 10 | 2.0 | 7.0 | 0.05 | 0.09 | 0.06 | 91 | 1010.9 |
| 20260506041711 | 55 | 22 | 2.0 | 7.0 | 0.05 | 0.09 | 0.06 | 91 | 1010.7 |
| 20260506041215 | 55 | 28 | 2.0 | 4.0 | 0.06 | 0.09 | 0.06 | 91 | 1010.8 |
| 20260506040713 | 55 | 30 | 2.0 | 4.0 | 0.06 | 0.09 | 0.06 | 91 | 1010.8 |
| 20260506040209 | 55 | 336 | 2.0 | 5.0 | 0.06 | 0.09 | 0.06 | 91 | 1010.9 |
| 20260506035707 | 55 | 42 | 2.0 | 5.0 | 0.06 | 0.09 | 0.06 | 91 | 1010.8 |
| 20260506035208 | 55 | 20 | 2.0 | 5.0 | 0.06 | 0.09 | 0.06 | 91 | 1010.7 |
| 20260506034708 | 55 | 30 | 2.0 | 4.0 | 0.06 | 0.09 | 0.06 | 91 | 1010.9 |
| 20260506034205 | 55 | 0 | 2.0 | 4.0 | 0.06 | 0.09 | 0.06 | 91 | 1010.9 |
| 20260506033704 | 55 | 355 | 1.0 | 4.0 | 0.04 | 0.07 | 0.04 | 91 | 1011.0 |
| 20260506033205 | 56 | 206 | 1.0 | 3.0 | 0.03 | 0.06 | 0.03 | 91 | 1011.1 |
| 20260506032703 | 56 | 206 | 2.0 | 7.0 | 0.02 | 0.05 | 0.02 | 90 | 1011.3 |
| 20260506031703 | 56 | 242 | 0.0 | 3.0 | 0.01 | 0.04 | 0.00 | 91 | 1011.6 |
| 20260506031203 | 55 | 346 | 0.0 | 0.0 | 0.00 | 0.03 | 0.00 | 90 | 1011.6 |
| 20260506030659 | 55 | 346 | 0.0 | 0.0 | 0.00 | 0.03 | 0.00 | 90 | 1011.5 |
| 20260506030154 | 55 | 346 | 0.0 | 0.0 | 0.00 | 0.03 | 0.00 | 90 | 1011.4 |
| 20260506025148 | 55 | 346 | 0.0 | 0.0 | 0.00 | 0.03 | 0.00 | 90 | 1011.4 |
| 20260506024645 | 55 | 346 | 0.0 | 0.0 | 0.00 | 0.03 | 0.00 | 91 | 1011.5 |
| 20260506024145 | 55 | 346 | 0.0 | 3.0 | 0.00 | 0.03 | 0.00 | 91 | 1011.6 |
| 20260506023643 | 55 | 346 | 1.0 | 3.0 | 0.00 | 0.03 | 0.00 | 91 | 1011.6 |
| 20260506023139 | 55 | 342 | 2.0 | 4.0 | 0.00 | 0.03 | 0.00 | 91 | 1011.6 |
| 20260506022640 | 55 | 346 | 2.0 | 4.0 | 0.00 | 0.03 | 0.00 | 91 | 1011.7 |
| 20260506022140 | 55 | 346 | 1.0 | 3.0 | 0.00 | 0.03 | 0.00 | 91 | 1011.7 |
| 20260506021639 | 55 | 346 | 1.0 | 4.0 | 0.00 | 0.03 | 0.00 | 91 | 1011.7 |
| 20260506021139 | 55 | 347 | 1.0 | 4.0 | 0.00 | 0.03 | 0.00 | 91 | 1011.7 |
| 20260506020638 | 55 | 346 | 2.0 | 3.0 | 0.00 | 0.03 | 0.00 | 90 | 1011.9 |
| 20260506020139 | 55 | 344 | 1.0 | 3.0 | 0.00 | 0.03 | 0.00 | 90 | 1011.8 |
| 20260506015134 | 55 | 345 | 2.0 | 5.0 | 0.00 | 0.03 | 0.00 | 90 | 1012.0 |
| 20260506014130 | 55 | 15 | 2.0 | 5.0 | 0.00 | 0.03 | 0.00 | 90 | 1012.0 |
| 20260506013631 | 55 | 22 | 2.0 | 5.0 | 0.00 | 0.03 | 0.00 | 90 | 1012.0 |
| 20260506013131 | 55 | 351 | 2.0 | 5.0 | 0.00 | 0.03 | 0.00 | 91 | 1012.1 |
| 20260506012631 | 55 | 340 | 3.0 | 5.0 | 0.00 | 0.03 | 0.00 | 91 | 1012.0 |